Latest Coastal Weather Observations for Cape Wessel

IDD60701

Issued at 5:45 pm CST Sunday 31 August 2014 (issued every 10 minutes, with the page automatically refreshed every 10 minutes)

About coastal observations | Map of coastal stations | Coastal observations for NT | Marine services | Other Formats
Station Details ID: 200786 Name: CAPE WESSEL Lat: -11.00 Lon: 136.76 Height: 18.0 m
Data from the previous 72 hours. | See also: Recent months for locations in Northern Territory
Date/Time
CST
Temp

°C
Wind Pressure Rain
since 9am
mm
Weather Cloud Vis
km
Sea
Height
m
Swell
Dir
 
Speed
knots
Gust
knots
hPa Trend Height
m
Period
s
Dir
31/05:30pm 25.9 ESE 14 17 1010.9 - 0.0 - - - - - - -
31/05:00pm 26.5 ESE 14 18 1010.7 - 0.0 - - - - - - -
31/04:30pm 27.4 ESE 14 17 1010.6 - 0.0 - - - - - - -
31/04:00pm 28.1 SE 15 17 1010.7 - 0.0 - - - - - - -
31/03:30pm 28.7 SE 15 19 1010.6 - 0.0 - - - - - - -
31/03:00pm 29.1 SE 15 19 1010.6 - 0.0 - - - - - - -
31/02:30pm 29.0 SE 15 18 1010.9 - 0.0 - - - - - - -
31/02:00pm 29.5 SE 16 19 1011.1 - 0.0 - - - - - - -
31/01:30pm 29.5 SE 15 19 1011.6 - 0.0 - - - - - - -
31/01:00pm 29.3 SE 15 19 1012.0 - 0.0 - - - - - - -
31/12:30pm 29.6 SE 15 18 1012.4 - 0.0 - - - - - - -
31/12:00pm 28.9 ESE 15 19 1012.7 - 0.0 - - - - - - -
31/11:30am 28.8 ESE 15 18 1013.2 - 0.0 - - - - - - -
31/11:00am 28.7 ESE 15 18 1013.6 - 0.0 - - - - - - -
31/10:30am 28.2 SE 15 17 1014.1 - 0.0 - - - - - - -
31/10:00am 28.1 SE 13 16 1014.5 - 0.0 - - - - - - -
31/09:30am 27.3 ESE 12 15 1014.7 - 0.0 - - - - - - -
31/09:00am 27.4 SE 11 15 1014.4 - 0.0 - - - - - - -
31/08:30am 26.2 SE 11 14 1014.1 - 0.0 - - - - - - -
31/08:00am 25.4 SE 11 14 1013.9 - 0.0 - - - - - - -
31/07:30am 24.4 ESE 11 14 1013.7 - 0.0 - - - - - - -
31/07:00am 23.4 ESE 11 13 1013.4 - 0.0 - - - - - - -
31/06:30am 22.9 SE 11 14 1013.3 - 0.0 - - - - - - -
31/06:00am 22.9 SE 12 14 1012.9 - 0.0 - - - - - - -
31/05:30am 23.0 SE 11 14 1013.1 - 0.0 - - - - - - -
31/05:00am 23.1 SE 12 14 1012.9 - 0.0 - - - - - - -
31/04:30am 23.1 SE 12 15 1012.7 - 0.0 - - - - - - -
31/04:00am 23.1 SSE 12 15 1012.7 - 0.0 - - - - - - -
31/03:30am 23.2 SSE 11 14 1012.4 - 0.0 - - - - - - -
31/03:00am 23.2 SE 12 14 1012.4 - 0.0 - - - - - - -
31/02:30am 23.3 SE 12 15 1012.7 - 0.0 - - - - - - -
31/02:00am 23.4 SE 12 15 1012.8 - 0.0 - - - - - - -
31/01:30am 23.4 SE 11 14 1013.1 - 0.0 - - - - - - -
31/01:00am 23.5 SE 13 16 1013.1 - 0.0 - - - - - - -
31/12:30am 23.7 SE 13 16 1013.5 - 0.0 - - - - - - -
31/12:00am 23.7 SE 14 16 1013.5 - 0.0 - - - - - - -
 
Date/Time
CST
Temp

°C
Wind Pressure Rain
since 9am
mm
Weather Cloud Vis
km
Sea
Height
m
Swell
Dir
 
Speed
knots
Gust
knots
hPa Trend Height
m
Period
s
Dir
30/11:30pm 23.9 SE 14 17 1013.8 - 0.0 - - - - - - -
30/11:00pm 24.0 ESE 15 18 1013.6 - 0.0 - - - - - - -
30/10:30pm 24.0 ESE 15 17 1013.6 - 0.0 - - - - - - -
30/10:00pm 24.1 ESE 13 17 1013.6 - 0.0 - - - - - - -
30/09:30pm 24.2 ESE 15 18 1013.7 - 0.0 - - - - - - -
30/09:00pm 24.2 ESE 14 17 1013.5 - 0.0 - - - - - - -
30/08:30pm 24.3 ESE 15 18 1013.4 - 0.0 - - - - - - -
30/08:00pm 24.4 ESE 14 18 1013.1 - 0.0 - - - - - - -
30/07:30pm 24.4 ESE 13 16 1012.8 - 0.0 - - - - - - -
30/07:00pm 24.4 ESE 14 17 1012.6 - 0.0 - - - - - - -
30/06:30pm 24.5 ESE 13 16 1012.2 - 0.0 - - - - - - -
30/06:00pm 24.9 ESE 13 16 1011.7 - 0.0 - - - - - - -
30/05:30pm 25.7 ESE 11 14 1011.5 - 0.0 - - - - - - -
30/05:00pm 27.0 SE 13 15 1011.3 - 0.0 - - - - - - -
30/04:30pm 27.5 SE 13 16 1011.4 - 0.0 - - - - - - -
30/04:00pm 28.0 SE 13 16 1011.6 - 0.0 - - - - - - -
30/03:30pm 29.0 SE 12 15 1011.8 - 0.0 - - - - - - -
30/03:00pm 28.5 ESE 12 15 1011.8 - 0.0 - - - - - - -
30/02:30pm 29.7 ESE 12 15 1012.2 - 0.0 - - - - - - -
30/02:00pm 28.7 ESE 14 16 1012.5 - 0.0 - - - - - - -
30/01:30pm 29.6 ESE 13 15 1012.8 - 0.0 - - - - - - -
30/01:00pm 30.2 ESE 13 15 1013.1 - 0.0 - - - - - - -
30/12:30pm 29.6 ESE 12 15 1013.8 - 0.0 - - - - - - -
30/12:00pm 29.9 ESE 12 15 1014.2 - 0.0 - - - - - - -
30/11:30am 29.3 ESE 12 14 1014.6 - 0.0 - - - - - - -
30/11:00am 28.7 ESE 12 15 1015.0 - 0.0 - - - - - - -
30/10:30am 28.3 ESE 11 14 1015.4 - 0.0 - - - - - - -
30/10:00am 28.5 ESE 12 15 1015.6 - 0.0 - - - - - - -
30/09:30am 27.0 ESE 12 14 1015.6 - 0.0 - - - - - - -
30/09:00am 26.1 ESE 13 16 1015.4 - 0.0 - - - - - - -
30/08:30am 25.6 ESE 13 15 1015.3 - 0.0 - - - - - - -
30/08:00am 24.9 SE 13 16 1015.1 - 0.0 - - - - - - -
30/07:30am 24.2 ESE 14 16 1014.8 - 0.0 - - - - - - -
30/07:00am 24.1 ESE 14 17 1014.4 - 0.0 - - - - - - -
30/06:30am 23.8 SE 13 16 1014.0 - 0.0 - - - - - - -
30/06:00am 23.8 SE 13 16 1013.6 - 0.0 - - - - - - -
30/05:30am 23.8 SE 12 15 1013.5 - 0.0 - - - - - - -
30/05:00am 23.6 SE 12 13 1013.3 - 0.0 - - - - - - -
30/04:30am 23.5 ESE 12 13 1013.1 - 0.0 - - - - - - -
30/04:00am 23.5 SE 11 13 1013.1 - 0.0 - - - - - - -
30/03:30am 23.7 SE 12 15 1013.2 - 0.0 - - - - - - -
30/03:00am 23.7 SE 12 15 1013.4 - 0.0 - - - - - - -
30/02:30am 24.0 SE 11 14 1013.8 - 0.0 - - - - - - -
30/02:00am 23.9 SE 12 14 1013.8 - 0.0 - - - - - - -
30/01:30am 23.9 SE 13 16 1013.7 - 0.0 - - - - - - -
30/01:00am 23.9 SE 13 16 1013.8 - 0.0 - - - - - - -
30/12:30am 23.9 ESE 13 15 1013.8 - 0.0 - - - - - - -
30/12:00am 24.0 ESE 14 16 1013.9 - 0.0 - - - - - - -
 
Date/Time
CST
Temp

°C
Wind Pressure Rain
since 9am
mm
Weather Cloud Vis
km
Sea
Height
m
Swell
Dir
 
Speed
knots
Gust
knots
hPa Trend Height
m
Period
s
Dir
29/11:30pm 24.1 SE 14 17 1014.2 - 0.0 - - - - - - -
29/11:00pm 24.2 SE 14 17 1014.4 - 0.0 - - - - - - -
29/10:30pm 24.3 SE 14 17 1014.4 - 0.0 - - - - - - -
29/10:00pm 24.3 SE 15 18 1014.7 - 0.0 - - - - - - -
29/09:30pm 24.3 SE 14 19 1014.5 - 0.0 - - - - - - -
29/09:00pm 24.3 SE 15 17 1014.3 - 0.0 - - - - - - -
29/08:30pm 24.4 ESE 14 17 1013.9 - 0.0 - - - - - - -
29/08:00pm 24.4 ESE 15 18 1013.6 - 0.0 - - - - - - -
29/07:30pm 24.5 ESE 14 19 1013.5 - 0.0 - - - - - - -
29/07:00pm 24.6 ESE 14 18 1013.2 - 0.0 - - - - - - -
29/06:30pm 24.7 ESE 15 17 1012.8 - 0.0 - - - - - - -
29/06:00pm 25.2 ESE 15 18 1012.4 - 0.0 - - - - - - -
29/05:30pm 25.7 ESE 14 17 1012.3 - 0.0 - - - - - - -
29/05:00pm 27.3 ESE 13 16 1012.4 - 0.0 - - - - - - -
29/04:30pm 27.5 E 13 17 1012.3 - 0.0 - - - - - - -
29/04:00pm 27.8 ESE 14 17 1012.3 - 0.0 - - - - - - -
29/03:30pm 28.3 E 15 17 1012.0 - 0.0 - - - - - - -
29/03:00pm 27.9 SE 14 19 1012.0 - 0.0 - - - - - - -
29/02:30pm 29.4 SE 14 17 1012.3 - 0.0 - - - - - - -
29/02:00pm 29.9 SE 14 17 1012.5 - 0.0 - - - - - - -
29/01:30pm 30.2 SE 12 15 1013.0 - 0.0 - - - - - - -
29/01:00pm 30.5 SE 13 17 1013.3 - 0.0 - - - - - - -
29/12:30pm 30.1 SE 12 15 1013.7 - 0.0 - - - - - - -
29/12:00pm 29.6 SE 13 16 1014.0 - 0.0 - - - - - - -
29/11:30am 29.4 SE 13 17 1014.4 - 0.0 - - - - - - -
29/11:00am 29.5 SE 13 16 1014.9 - 0.0 - - - - - - -
29/10:30am 28.6 ESE 14 16 1015.0 - 0.0 - - - - - - -
29/10:00am 28.2 SE 14 17 1015.2 - 0.0 - - - - - - -
29/09:30am 27.1 SE 14 17 1015.1 - 0.0 - - - - - - -
29/09:00am 27.1 SE 13 17 1015.0 - 0.0 - - - - - - -
29/08:30am 25.5 SE 15 18 1015.0 - 0.0 - - - - - - -
29/08:00am 24.7 SE 15 18 1014.8 - 0.0 - - - - - - -
29/07:30am 24.2 SE 15 18 1014.5 - 0.0 - - - - - - -
29/07:00am 23.6 SE 15 18 1014.2 - 0.0 - - - - - - -
29/06:30am 23.1 SE 14 16 1013.9 - 0.0 - - - - - - -
29/06:00am 23.0 SE 14 17 1013.4 - 0.0 - - - - - - -
29/05:30am 23.1 SE 15 20 1013.3 - 0.0 - - - - - - -
29/05:00am 23.1 SE 16 19 1013.3 - 0.0 - - - - - - -
29/04:30am 23.0 SE 16 20 1013.0 - 0.0 - - - - - - -
29/04:00am 23.0 SE 16 20 1012.7 - 0.0 - - - - - - -
29/03:30am 23.1 SE 15 21 1012.7 - 0.0 - - - - - - -
29/03:00am 23.2 SE 17 20 1012.6 - 0.0 - - - - - - -
29/02:30am 23.2 SE 15 19 1012.9 - 0.0 - - - - - - -
29/02:00am 23.4 SE 15 19 1013.1 - 0.0 - - - - - - -
29/01:30am 23.4 SE 17 21 1013.2 - 0.0 - - - - - - -
29/01:00am 23.4 SE 17 21 1013.3 - 0.0 - - - - - - -
29/12:30am 23.5 SE 18 23 1013.3 - 0.0 - - - - - - -
29/12:00am 23.6 SE 18 22 1013.4 - 0.0 - - - - - - -
 
Date/Time
CST
Temp

°C
Wind Pressure Rain
since 9am
mm
Weather Cloud Vis
km
Sea
Height
m
Swell
Dir
 
Speed
knots
Gust
knots
hPa Trend Height
m
Period
s
Dir
28/11:30pm 23.7 SE 17 21 1013.8 - 0.0 - - - - - - -
28/11:00pm 23.6 SSE 17 21 1014.1 - 0.0 - - - - - - -
28/10:30pm 23.6 SE 16 21 1014.2 - 0.0 - - - - - - -
28/10:00pm 23.9 SE 18 22 1014.2 - 0.0 - - - - - - -
28/09:30pm 24.0 SE 17 22 1014.1 - 0.0 - - - - - - -
28/09:00pm 24.0 SE 18 22 1013.7 - 0.0 - - - - - - -
28/08:30pm 24.1 SE 19 23 1013.9 - 0.0 - - - - - - -
28/08:00pm 24.1 SSE 18 22 1013.9 - 0.0 - - - - - - -
28/07:30pm 24.3 SE 19 22 1013.7 - 0.0 - - - - - - -
28/07:00pm 24.2 SE 18 21 1013.3 - 0.0 - - - - - - -
28/06:30pm 24.4 SE 17 21 1012.9 - 0.0 - - - - - - -
28/06:00pm 24.8 SE 18 22 1012.6 - 0.0 - - - - - - -

Other Formats:

Comma delimited format used in spreadsheet applications
http://www.bom.gov.au/fwo/IDD60701/IDD60701.94147.axf

JavaScript Object Notation format (JSON) in row-major order
http://www.bom.gov.au/fwo/IDD60701/IDD60701.94147.json